Simultaneous Nadir Overpasses (SNOs) Predictions

Prediction of SNOs between METOP-B and NPP Satellite Orbit:

Table of predicted SNOs for the next 14.0 days since TLE Epoch: 11/10/2012
Index Date (METOP-B) Time (METOP-B) METOP-B Lat,Lon Date (NPP) Time (NPP) NPP Lat,Lon Distance(km) Time Diff (sec)
1 11/18/2012 05:29:06 -73.34, -89.04 11/18/2012 05:27:59 -73.35, -91.94 92.63 67
2 11/18/2012 06:19:50 73.09, 77.75 11/18/2012 06:18:40 73.11, 75.89 60.42 70
3 11/18/2012 07:10:34 -73.03,-115.07 11/18/2012 07:09:23 -73.05,-116.66 51.75 71
4 11/18/2012 08:01:17 72.83, 51.84 11/18/2012 08:00:04 72.82, 51.15 22.70 73
5 11/18/2012 08:52:01 -72.76,-140.98 11/18/2012 08:50:47 -72.76,-141.41 14.12 74
6 11/18/2012 09:42:42 72.66, 26.15 11/18/2012 09:41:31 72.67, 26.08 2.59 71
7 11/18/2012 10:33:25 -72.64,-166.56 11/18/2012 10:32:15 -72.66,-166.58 2.23 70
8 11/18/2012 11:24:04 72.64, 0.77 11/18/2012 11:23:00 72.62, 0.80 2.16 64
9 11/18/2012 12:14:47 -72.62, 168.06 11/18/2012 12:13:44 -72.61, 168.14 2.68 63
10 11/18/2012 13:05:26 72.62, -24.60 11/18/2012 13:04:30 72.63, -24.58 0.69 56
11 11/18/2012 13:56:09 -72.61, 142.69 11/18/2012 13:55:14 -72.62, 142.75 2.38 55
12 11/18/2012 14:46:48 72.61, -49.97 11/18/2012 14:46:00 72.63, -49.97 2.80 48
13 11/18/2012 15:37:30 -72.64, 117.42 11/18/2012 15:36:44 -72.62, 117.37 2.72 46
14 11/18/2012 16:28:10 72.59, -75.35 11/18/2012 16:27:29 72.59, -75.25 3.37 41
15 11/18/2012 17:18:52 -72.62, 92.05 11/18/2012 17:18:14 -72.63, 91.98 2.09 38
16 11/18/2012 18:09:32 72.57,-100.72 11/18/2012 18:08:59 72.59,-100.63 3.54 33
17 11/18/2012 19:00:14 -72.61, 66.67 11/18/2012 18:59:43 -72.58, 66.70 3.20 31
18 11/18/2012 19:50:53 72.61,-125.99 11/18/2012 19:50:29 72.59,-126.02 1.60 24
19 11/18/2012 20:41:36 -72.59, 41.30 11/18/2012 20:41:13 -72.59, 41.32 0.95 23
20 11/18/2012 21:32:15 72.59,-151.37 11/18/2012 21:31:59 72.60,-151.40 1.51 16
21 11/18/2012 22:22:58 -72.57, 15.93 11/18/2012 22:22:43 -72.59, 15.93 1.70 15
22 11/18/2012 23:13:37 72.57,-176.74 11/18/2012 23:13:28 72.55,-176.68 3.01 9
23 11/19/2012 00:04:20 -72.56, -9.45 11/19/2012 00:04:12 -72.54, -9.35 3.75 8
24 11/19/2012 00:54:59 72.56, 157.89 11/19/2012 00:54:58 72.56, 157.94 1.63 1
25 11/19/2012 01:45:42 -72.54, -34.82 11/19/2012 01:45:42 -72.55, -34.73 3.12 0
26 11/19/2012 02:36:21 72.54, 132.51 11/19/2012 02:36:28 72.56, 132.55 2.79 7
27 11/19/2012 03:27:03 -72.58, -60.09 11/19/2012 03:27:12 -72.55, -60.11 2.66 9
28 11/19/2012 04:17:42 72.57, 107.24 11/19/2012 04:17:58 72.57, 107.17 2.64 16
29 11/19/2012 05:08:25 -72.56, -85.46 11/19/2012 05:08:42 -72.56, -85.50 1.13 17
30 11/19/2012 05:59:04 72.56, 81.87 11/19/2012 05:59:28 72.57, 81.78 3.27 24
31 11/19/2012 06:49:47 -72.54,-110.84 11/19/2012 06:50:12 -72.56,-110.88 2.62 25
32 11/19/2012 07:40:26 72.54, 56.49 11/19/2012 07:40:57 72.53, 56.50 1.71 31
33 11/19/2012 08:31:09 -72.53,-136.21 11/19/2012 08:31:41 -72.52,-136.16 1.94 32
34 11/19/2012 09:21:48 72.52, 31.12 11/19/2012 09:22:27 72.53, 31.12 0.71 39
35 11/19/2012 10:12:31 -72.51,-161.58 11/19/2012 10:13:11 -72.52,-161.55 1.74 40
36 11/19/2012 11:03:09 72.51, 5.75 11/19/2012 11:03:56 72.54, 5.73 3.12 47
37 11/19/2012 11:53:51 -72.54, 173.14 11/19/2012 11:54:40 -72.53, 173.07 3.28 49
38 11/19/2012 12:44:31 72.49, -19.63 11/19/2012 12:45:25 72.49, -19.55 2.62 54
39 11/19/2012 13:35:13 -72.53, 147.77 11/19/2012 13:36:10 -72.53, 147.68 2.95 57
40 11/19/2012 14:25:53 72.47, -45.00 11/19/2012 14:26:55 72.49, -44.93 3.15 62
41 11/19/2012 15:16:35 -72.51, 122.40 11/19/2012
